| time (UTC) | temp F | wind direction | speed knots | gust knots | rain 1hr in | rain 24hr in | rain mn in | humidity % | barometer mb |
| 20260906231513 | 93 | 293 | 5.2 | 11.3 | 0.00 | 0.00 | 0.00 | 18 | 1001.4 |
| 20260906230012 | 93 | 297 | 7.0 | 12.2 | 0.00 | 0.00 | 0.00 | 17 | 1001.5 |
| 20260906224511 | 94 | 308 | 5.2 | 10.4 | 0.00 | 0.00 | 0.00 | 17 | 1001.6 |
| 20260906223010 | 94 | 290 | 3.5 | 7.0 | 0.00 | 0.00 | 0.00 | 16 | 1001.6 |
| 20260906221508 | 93 | 45 | 2.6 | 5.2 | 0.00 | 0.00 | 0.00 | 17 | 1001.8 |
| 20260906220006 | 94 | 216 | 7.0 | 13.9 | 0.00 | 0.00 | 0.00 | 16 | 1002.1 |
| 20260906214503 | 93 | 335 | 3.5 | 7.0 | 0.00 | 0.00 | 0.00 | 17 | 1002.3 |
| 20260906213001 | 94 | 263 | 4.3 | 7.0 | 0.00 | 0.00 | 0.00 | 15 | 1002.7 |
| 20260906211559 | 92 | 204 | 1.7 | 7.8 | 0.00 | 0.00 | 0.00 | 17 | 1002.9 |
| 20260906210056 | 92 | 239 | 4.3 | 12.2 | 0.00 | 0.00 | 0.00 | 16 | 1003.2 |
| 20260906204612 | 93 | 243 | 1.7 | 6.1 | 0.00 | 0.00 | 0.00 | 16 | 1003.5 |
| 20260906203051 | 92 | 356 | 0.9 | 7.8 | 0.00 | 0.00 | 0.00 | 15 | 1003.8 |
| 20260906201614 | 91 | 314 | 6.1 | 11.3 | 0.00 | 0.00 | 0.00 | 16 | 1004.0 |
| 20260906200047 | 91 | 340 | 3.5 | 9.6 | 0.00 | 0.00 | 0.00 | 16 | 1004.2 |
| 20260906194555 | 92 | 328 | 1.7 | 5.2 | 0.00 | 0.00 | 0.00 | 15 | 1004.4 |
| 20260906193045 | 91 | 274 | 2.6 | 6.1 | 0.00 | 0.00 | 0.00 | 14 | 1004.6 |
| 20260906191538 | 89 | 342 | 1.7 | 6.1 | 0.00 | 0.00 | 0.00 | 16 | 1004.9 |
| 20260906190036 | 90 | 65 | 5.2 | 7.8 | 0.00 | 0.00 | 0.00 | 16 | 1005.1 |
| 20260906184532 | 88 | 359 | 3.5 | 7.8 | 0.00 | 0.00 | 0.00 | 20 | 1005.4 |
| 20260906183030 | 87 | 6 | 3.5 | 7.8 | 0.00 | 0.00 | 0.00 | 21 | 1005.6 |
| 20260906181540 | 88 | 309 | 0.0 | 6.1 | 0.00 | 0.00 | 0.00 | 22 | 1005.9 |
| 20260906180030 | 87 | 60 | 5.2 | 7.0 | 0.00 | 0.00 | 0.00 | 20 | 1006.1 |
| 20260906174525 | 87 | 78 | 0.9 | 5.2 | 0.00 | 0.00 | 0.00 | 23 | 1006.2 |
| 20260906173024 | 85 | 77 | 1.7 | 7.0 | 0.00 | 0.00 | 0.00 | 26 | 1006.4 |
| 20260906171518 | 83 | 85 | 3.5 | 9.6 | 0.00 | 0.00 | 0.00 | 28 | 1006.5 |
| 20260906170014 | 81 | 47 | 4.3 | 8.7 | 0.00 | 0.00 | 0.00 | 30 | 1006.7 |
| 20260906164519 | 80 | 73 | 3.5 | 9.6 | 0.00 | 0.00 | 0.00 | 31 | 1006.7 |
| 20260906163014 | 79 | 98 | 6.1 | 11.3 | 0.00 | 0.00 | 0.00 | 33 | 1006.8 |
| 20260906161506 | 78 | 65 | 5.2 | 7.8 | 0.00 | 0.00 | 0.00 | 35 | 1006.8 |
| 20260906160005 | 77 | 47 | 8.7 | 12.2 | 0.00 | 0.00 | 0.00 | 37 | 1006.8 |
| 20260906154504 | 77 | 84 | 7.0 | 14.8 | 0.00 | 0.00 | 0.00 | 38 | 1007.0 |
| 20260906153004 | 76 | 30 | 7.8 | 13.0 | 0.00 | 0.00 | 0.00 | 39 | 1007.0 |
| 20260906151502 | 75 | 360 | 8.7 | 12.2 | 0.00 | 0.00 | 0.00 | 40 | 1006.9 |
| 20260906150002 | 73 | 40 | 7.8 | 13.9 | 0.00 | 0.00 | 0.00 | 42 | 1007.0 |
| 20260906144502 | 72 | 41 | 7.8 | 11.3 | 0.00 | 0.00 | 0.00 | 43 | 1007.0 |
| 20260906143105 | 71 | 41 | 7.0 | 10.4 | 0.00 | 0.00 | 0.00 | 43 | 1006.9 |
| 20260906141602 | 70 | 45 | 7.0 | 10.4 | 0.00 | 0.00 | 0.00 | 44 | 1006.9 |
| 20260906140108 | 69 | 43 | 5.2 | 8.7 | 0.00 | 0.00 | 0.00 | 45 | 1006.9 |
| 20260906134617 | 68 | 50 | 0.0 | 4.3 | 0.00 | 0.00 | 0.00 | 46 | 1006.8 |
| 20260906133100 | 68 | 74 | 0.0 | 4.3 | 0.00 | 0.00 | 0.00 | 47 | 1006.8 |
| 20260906131554 | 67 | 105 | 1.7 | 3.5 | 0.00 | 0.00 | 0.00 | 45 | 1006.8 |
| 20260906124551 | 68 | 74 | 0.9 | 3.5 | 0.00 | 0.00 | 0.00 | 46 | 1006.6 |
| 20260906123049 | 68 | 75 | 2.6 | 2.6 | 0.00 | 0.00 | 0.00 | 44 | 1006.4 |
| 20260906121550 | 68 | 114 | 0.0 | 1.7 | 0.00 | 0.00 | 0.00 | 41 | 1006.4 |
| 20260906120045 | 68 | 72 | 0.0 | 0.0 | 0.00 | 0.00 | 0.00 | 41 | 1006.5 |
| 20260906114542 | 69 | 12 | 0.0 | 0.0 | 0.00 | 0.00 | 0.00 | 40 | 1006.4 |
| 20260906113042 | 69 | 11 | 0.0 | 0.0 | 0.00 | 0.00 | 0.00 | 40 | 1006.3 |
| 20260906111541 | 69 | 8 | 0.0 | 0.0 | 0.00 | 0.00 | 0.00 | 40 | 1006.2 |
| 20260906110037 | 70 | 37 | 0.0 | 0.0 | 0.00 | 0.00 | 0.00 | 39 | 1006.2 |
| 20260906104535 | 71 | 34 | 0.0 | 0.0 | 0.00 | 0.00 | 0.00 | 38 | 1006.1 |
| 20260906103033 | 71 | 11 | 0.0 | 2.6 | 0.00 | 0.00 | 0.00 | 37 | 1006.1 |
| 20260906101532 | 71 | 77 | 0.0 | 0.0 | 0.00 | 0.00 | 0.00 | 37 | 1006.0 |
| 20260906100038 | 72 | 18 | 0.0 | 0.0 | 0.00 | 0.00 | 0.00 | 37 | 1005.9 |
| 20260906094529 | 72 | 18 | 0.0 | 0.0 | 0.00 | 0.00 | 0.00 | 36 | 1005.9 |
| 20260906093043 | 72 | 338 | 0.0 | 0.0 | 0.00 | 0.00 | 0.00 | 36 | 1005.7 |
| 20260906091525 | 73 | 29 | 0.0 | 0.0 | 0.00 | 0.00 | 0.00 | 35 | 1005.7 |
| 20260906090023 | 73 | 25 | 0.0 | 0.9 | 0.00 | 0.00 | 0.00 | 34 | 1005.6 |
| 20260906084522 | 74 | 127 | 0.0 | 0.0 | 0.00 | 0.00 | 0.00 | 34 | 1005.7 |
| 20260906083022 | 74 | 139 | 0.0 | 0.0 | 0.00 | 0.00 | 0.00 | 34 | 1005.8 |
| 20260906081541 | 74 | 285 | 0.0 | 0.0 | 0.00 | 0.00 | 0.00 | 35 | 1005.8 |
| 20260906080016 | 75 | 285 | 0.0 | 0.0 | 0.00 | 0.00 | 0.00 | 34 | 1005.9 |
| 20260906074515 | 75 | 294 | 0.0 | 3.5 | 0.00 | 0.00 | 0.00 | 33 | 1005.9 |
| 20260906073031 | 76 | 329 | 2.6 | 6.1 | 0.00 | 0.00 | 0.00 | 32 | 1006.0 |
| 20260906071513 | 76 | 298 | 1.7 | 2.6 | 0.00 | 0.00 | 0.00 | 33 | 1005.9 |
| 20260906070014 | 76 | 243 | 0.0 | 0.0 | 0.00 | 0.00 | 0.00 | 32 | 1006.0 |
| 20260906064509 | 77 | 258 | 0.0 | 0.9 | 0.00 | 0.00 | 0.00 | 32 | 1005.9 |
| 20260906063011 | 77 | 40 | 0.0 | 2.6 | 0.00 | 0.00 | 0.00 | 32 | 1005.9 |
| 20260906061506 | 77 | 91 | 0.0 | 0.0 | 0.00 | 0.00 | 0.00 | 31 | 1006.0 |
| 20260906060002 | 78 | 324 | 0.0 | 3.5 | 0.00 | 0.00 | 0.00 | 30 | 1005.8 |
| 20260906054504 | 79 | 318 | 0.0 | 2.6 | 0.00 | 0.00 | 0.00 | 30 | 1005.6 |
| 20260906053002 | 80 | 101 | 0.0 | 0.0 | 0.00 | 0.00 | 0.00 | 29 | 1005.7 |
| 20260906051601 | 79 | 122 | 0.9 | 2.6 | 0.00 | 0.00 | 0.00 | 30 | 1005.7 |
| 20260906050114 | 79 | 105 | 0.0 | 0.9 | 0.00 | 0.00 | 0.00 | 30 | 1005.7 |
| 20260906044559 | 79 | 130 | 0.0 | 4.3 | 0.00 | 0.00 | 0.00 | 30 | 1005.7 |
| 20260906043110 | 80 | 139 | 0.0 | 2.6 | 0.00 | 0.00 | 0.00 | 29 | 1005.8 |
| 20260906041558 | 80 | 106 | 0.0 | 2.6 | 0.00 | 0.00 | 0.00 | 29 | 1005.8 |
| 20260906040114 | 81 | 165 | 0.0 | 1.7 | 0.00 | 0.00 | 0.00 | 29 | 1005.8 |
| 20260906034558 | 81 | 274 | 0.0 | 2.6 | 0.00 | 0.00 | 0.00 | 28 | 1005.7 |
| 20260906033058 | 81 | 301 | 0.0 | 3.5 | 0.00 | 0.00 | 0.00 | 29 | 1005.6 |
| 20260906031606 | 81 | 228 | 0.0 | 0.0 | 0.00 | 0.00 | 0.00 | 29 | 1005.4 |
| 20260906030106 | 82 | 293 | 0.0 | 1.7 | 0.00 | 0.00 | 0.00 | 29 | 1005.2 |
| 20260906024554 | 82 | 268 | 0.0 | 1.7 | 0.00 | 0.00 | 0.00 | 29 | 1004.8 |
| 20260906023115 | 83 | 292 | 0.0 | 3.5 | 0.00 | 0.00 | 0.00 | 28 | 1004.7 |
| 20260906021554 | 84 | 309 | 2.6 | 5.2 | 0.00 | 0.00 | 0.00 | 27 | 1004.5 |
| 20260906020053 | 84 | 319 | 1.7 | 5.2 | 0.00 | 0.00 | 0.00 | 27 | 1004.3 |
| 20260906014613 | 85 | 318 | 2.6 | 7.0 | 0.00 | 0.00 | 0.00 | 27 | 1004.2 |
| 20260906013054 | 86 | 316 | 3.5 | 6.1 | 0.00 | 0.00 | 0.00 | 27 | 1004.2 |
| 20260906011556 | 86 | 318 | 4.3 | 7.8 | 0.00 | 0.00 | 0.00 | 26 | 1004.1 |
| 20260906010051 | 87 | 314 | 1.7 | 7.8 | 0.00 | 0.00 | 0.00 | 25 | 1004.1 |
| 20260906004602 | 88 | 320 | 4.3 | 10.4 | 0.00 | 0.00 | 0.00 | 26 | 1004.0 |
| 20260906003053 | 88 | 293 | 6.1 | 11.3 | 0.00 | 0.00 | 0.00 | 25 | 1004.1 |
| 20260906001549 | 88 | 302 | 4.3 | 14.8 | 0.00 | 0.00 | 0.00 | 25 | 1004.1 |
| 20260906000059 | 89 | 292 | 7.8 | 12.2 | 0.00 | 0.00 | 0.00 | 24 | 1003.9 |
| 20260905234554 | 88 | 319 | 7.0 | 13.9 | 0.00 | 0.00 | 0.00 | 25 | 1003.9 |
| 20260905233048 | 90 | 323 | 3.5 | 13.9 | 0.00 | 0.00 | 0.00 | 24 | 1004.0 |